TimeMST,TemperatureF,Dew PointF,Humidity,Sea Level PressureIn,VisibilityMPH,Wind Direction,Wind SpeedMPH,Gust SpeedMPH,PrecipitationIn,Events,Conditions,WindDirDegrees,DateUTC
12:53 AM,39.0,27.0,62,30.04,10.0,SW,12.7,-,N/A,,Clear,220,2013-12-16 07:53:00
1:53 AM,41.0,27.0,57,30.04,10.0,SW,16.1,-,N/A,,Clear,220,2013-12-16 08:53:00
2:53 AM,39.9,27.0,60,30.05,10.0,SSW,11.5,-,N/A,,Clear,210,2013-12-16 09:53:00
3:53 AM,41.0,27.0,57,30.04,10.0,SW,12.7,-,N/A,,Clear,230,2013-12-16 10:53:00
4:53 AM,39.0,27.0,62,30.06,10.0,SW,15.0,-,N/A,,Clear,220,2013-12-16 11:53:00
5:53 AM,39.0,26.1,60,30.05,10.0,SW,20.7,-,N/A,,Clear,230,2013-12-16 12:53:00
6:53 AM,37.9,26.1,62,30.07,10.0,SW,19.6,-,N/A,,Clear,230,2013-12-16 13:53:00
7:53 AM,37.0,26.1,65,30.09,10.0,SW,11.5,-,N/A,,Clear,230,2013-12-16 14:53:00
8:53 AM,37.9,26.1,62,30.11,10.0,WSW,15.0,-,N/A,,Clear,240,2013-12-16 15:53:00
9:53 AM,39.9,26.1,58,30.09,10.0,WSW,18.4,-,N/A,,Clear,240,2013-12-16 16:53:00
10:53 AM,43.0,25.0,49,30.12,10.0,WSW,19.6,-,N/A,,Clear,240,2013-12-16 17:53:00
11:53 AM,45.0,24.1,44,30.12,10.0,WSW,16.1,24.2,N/A,,Clear,240,2013-12-16 18:53:00
12:53 PM,46.9,24.1,41,30.12,10.0,West,20.7,29.9,N/A,,Clear,260,2013-12-16 19:53:00
1:53 PM,50.0,24.1,36,30.10,10.0,West,19.6,26.5,N/A,,Clear,260,2013-12-16 20:53:00
2:53 PM,46.9,24.1,41,30.13,10.0,West,17.3,25.3,N/A,,Clear,260,2013-12-16 21:53:00
3:53 PM,44.1,24.1,45,30.16,10.0,West,13.8,-,N/A,,Clear,260,2013-12-16 22:53:00
4:53 PM,43.0,25.0,49,30.18,10.0,WSW,15.0,-,N/A,,Clear,250,2013-12-16 23:53:00
5:53 PM,41.0,24.1,51,30.20,10.0,WSW,13.8,-,N/A,,Clear,250,2013-12-17 00:53:00
6:53 PM,35.1,24.1,64,30.24,10.0,West,5.8,-,N/A,,Clear,270,2013-12-17 01:53:00
7:53 PM,36.0,24.1,62,30.25,10.0,West,6.9,-,N/A,,Clear,260,2013-12-17 02:53:00
8:53 PM,34.0,24.1,67,30.27,10.0,NW,5.8,-,N/A,,Clear,320,2013-12-17 03:53:00
9:53 PM,28.0,23.0,81,30.30,10.0,West,3.5,-,N/A,,Clear,260,2013-12-17 04:53:00
10:53 PM,26.1,24.1,92,30.30,10.0,East,5.8,-,N/A,,Clear,100,2013-12-17 05:53:00
11:53 PM,30.9,24.1,76,30.27,10.0,SSW,10.4,-,N/A,,Clear,210,2013-12-17 06:53:00